Regional Weather Roundup
Issued by NWS

Home | Current Version | Previous Version | Graphics & Text | Print | Product List | Glossary On
Versions: 1 2 3 4 5 6 7 8 9 10 11 12 13 14 15 16 17 18 19 20 21 22 23 24 25 26 27 28 29 30 31 32 33 34 35 36 37 38 39 40 41 42 43 44 45 46 47 48 49 50
000
ASUS43 KMPX 171201
RWRMN
WEATHER ROUNDUP FOR MINNESOTA
NATIONAL WEATHER SERVICE TWIN CITIES/CHANHASSEN MN
600 AM CST SUN DEC 17 2017


NOTE: "FAIR" INDICATES FEW OR NO CLOUDS BELOW 12,000 FEET WITH NO
SIGNIFICANT WEATHER AND/OR OBSTRUCTIONS TO VISIBILITY. N/A MEANS
CURRENT SKY AND/OR WEATHER CONDITIONS ARE NOT AVAILABLE.

MNZ060>063-068>070-171300-
   Twin Cities Metro

CITY           SKY/WX    TMP DP  RH WIND       PRES   REMARKS
TWIN CITIES    CLOUDY    21  20  96 E5        30.10S WCI  15
6HR MIN TEMP:  18; 6HR MAX TEMP:  24;

ST PAUL        CLOUDY    22  21  96 CALM      30.12R FOG
CRYSTAL        CLOUDY    21  16  81 E5        30.09S WCI  15
BLAINE         PTCLDY    21  21 100 E3        30.09R
LAKEVILLE      CLOUDY    19  19 100 CALM      30.08S FOG
EDEN PRAIRIE   CLOUDY    23  18  81 E5        30.09R WCI  17
6HR MIN TEMP:  20; 6HR MAX TEMP:  25;

SOUTH ST PAUL  CLOUDY    22  22  98 CALM      30.10S FOG
LAKE ELMO      CLOUDY    23  23 100 NE3       30.10F FOG
$$
MNZ001>005-007-008-013>017-022>024-027-028-171300-
   Northwest Minnesota

CITY           SKY/WX    TMP DP  RH WIND       PRES   REMARKS
BEMIDJI        CLOUDY    22  21  96 SW3       30.02S FOG
HALLOCK        CLEAR      9   7  92 S6        29.96F WCI  -1
ROSEAU         CLEAR     18  14  86 S8        29.95F WCI   7
WARROAD        CLOUDY    23  19  86 S8        29.95F FOG     WCI  14
CROOKSTON      CLEAR     16  14  93 S3        30.02F FOG
FOSSTON        FOG       21  21 100 S8        30.02F VSB 1/4 WCI  12
DETROIT LAKES  CLOUDY    25  23  93 S5        30.04S FOG     WCI  19
MOORHEAD       CLOUDY    21  21 100 CALM      30.05S
PARK RAPIDS    CLOUDY    24  21  88 S3        30.02F FOG
MAHNOMEN       PTSUNNY   22  21  95 S6        30.02F WCI  14
$$
MNZ006-009>011-018-025>026-171300-
   North Central Minnesota

CITY           SKY/WX    TMP DP  RH WIND       PRES   REMARKS
BAUDETTE       CLOUDY    24  22  91 S10G22    29.96S WCI  14
FLAG ISLAND    CLOUDY    16  14  93 S5        29.94F WCI   9
INTL FALLS     CLOUDY    22  19  89 S6        30.00S WCI  14
6HR MIN TEMP:  20; 6HR MAX TEMP:  22;

WASKISH        CLOUDY    23  21  93 S3        30.01S FOG
BIG FORK       CLOUDY    23  21  93 S6        30.02S FOG     WCI  16
LONGVILLE      CLOUDY    25  23  93 S5        30.05S FOG     WCI  19
GRAND RAPIDS   CLOUDY    21  20  96 S7        30.06F FOG     WCI  12
CRANE LAKE     CLOUDY    19  19 100 S5        30.05F WCI  13
ORR            CLOUDY    19  18  93 S6        30.01F WCI  11
COOK           CLOUDY    19  19 100 CALM      30.05R
WALKER         CLOUDY    24  23  96 S3        30.04S FOG
$$
MNZ012-019>021-037-171300-
   Northeast Minnesota

CITY           SKY/WX    TMP DP  RH WIND       PRES   REMARKS
DULUTH         CLOUDY    19  19 100 W5        30.06F FOG     WCI  12
6HR MIN TEMP:  19; 6HR MAX TEMP:  20;

ELY            CLOUDY    19  19 100 S5        30.04S WCI  13
HIBBING        CLOUDY    19  18  95 S3        30.05S
EVELETH        CLOUDY    20  17  88 S3        30.06S FOG
DULUTH HARBOR  CLOUDY    23  19  86 SW3       30.12F
TWO HARBORS    CLOUDY    25  19  80 CALM      30.07S
SILVER BAY     CLOUDY    21  19  93 CALM      30.07S
GRAND MARAIS     N/A     28  23  81 VRB6      30.09F WCI  22
G MARAIS ARPRT CLOUDY    21  18  86 S5        30.03S FOG     WCI  15
$$
MNZ029>031-032-039>041-046>048-054>057-064-171300-
   West Central Minnesota

CITY           SKY/WX    TMP DP  RH WIND       PRES   REMARKS
FERGUS FALLS   FOG       25  25 100 SE6       30.08S VSB 1/2 WCI  18
WHEATON        CLOUDY    25  21  86 SE7       30.08F FOG     WCI  17
MORRIS         CLOUDY    28  27  93 CALM      30.05F FOG
ALEXANDRIA     CLOUDY    27  26  96 CALM      30.05F FOG
ELBOW LAKE     FAIR      24  24  99 E5        30.06S FOG     WCI  18
WADENA         CLOUDY    23  23 100 SW3       30.05F FOG
GLENWOOD       CLOUDY    27  27 100 CALM      30.06S FOG
APPLETON       CLOUDY    28  27  93 SE3       30.07R FOG
BENSON         CLOUDY    28  27  93 CALM      30.09R FOG
ORTONVILLE     CLOUDY    27  25  93 CALM      30.06S FOG
MADISON        CLOUDY    28  28 100 CALM      30.07F FOG
WILLMAR        CLOUDY    27  27 100 NE6       30.08S FOG     WCI  20
$$
MNZ033>034-036-042>043-049>051-058-059-171300-
   Central Minnesota

CITY           SKY/WX    TMP DP  RH WIND       PRES   REMARKS
ST CLOUD       CLOUDY    20  17  88 CALM      30.09S
6HR MIN TEMP:  17; 6HR MAX TEMP:  22;

SAUK CENTRE    CLOUDY    25  24  97 CALM      30.07R FOG
PAYNESVILLE    CLOUDY    24  24 100 E3        30.09R FOG
AITKIN         CLOUDY    21  19  93 CALM      30.05F FOG
PINE RIVER     CLOUDY    21  21 100 CALM      30.08F FOG
BRAINERD       CLOUDY    24  22  91 CALM      30.06F FOG
STAPLES        CLOUDY    25  25 100 CALM      30.05F FOG
LONG PRAIRIE   CLOUDY    25  25 100 CALM      30.05F FOG
LITTLE FALLS   CLOUDY    23  21  93 CALM      30.07F FOG
LITCHFIELD     CLOUDY    25  23  93 NE3       30.09R
BUFFALO        CLOUDY    20  17  88 CALM      30.11R
MAPLE LAKE     CLOUDY    22  19  91 NE3       30.10R
HUTCHINSON     PTCLDY    24  21  89 N3        30.10R
$$
MNZ037-044-045-052-053-171300-
   East Central Minnesota

CITY           SKY/WX    TMP DP  RH WIND       PRES   REMARKS
PRINCETON      CLOUDY    21  18  86 CALM      30.09S
MORA           CLOUDY    21  18  86 CALM      30.11S
CAMBRIDGE      CLOUDY    21  16  79 CALM      30.10S
RUSH CITY      CLOUDY    18  15  90 CALM      30.10F
MOOSE LAKE     CLOUDY    23  19  86 CALM      30.07F
HINCKLEY       CLOUDY    21  19  93 CALM      30.10S
CLOQUET        CLOUDY    19  18  93 S3        30.07F
MCGREGOR       CLOUDY    23  21  93 CALM      30.07F
$$
MNZ071>073-080-081-089-090-097-098-171300-
   Southwest Minnesota

CITY           SKY/WX    TMP DP  RH WIND       PRES   REMARKS
MONTEVIDEO     CLOUDY    27  27 100 E5        30.07F FOG     WCI  21
GRANITE FALLS  CLOUDY    27  25  93 NE3       30.10R FOG
CANBY          CLOUDY    28  27  97 CALM      30.07F FOG
MARSHALL       CLOUDY    25  24  96 NE3       30.08R FOG
REDWOOD FALLS  CLOUDY    26  24  92 E5        30.08S FOG     WCI  20
OLIVIA         CLOUDY    27  25  93 CALM      30.08R FOG
PIPESTONE      CLOUDY    23  21  93 NE3       30.03R FOG
WINDOM         HAZE      25  16  68 NE6       30.05R VSB 1/2 WCI  18
WORTHINGTON    SNOW      24  23  96 NE12      30.05R VSB 1/2 WCI  13
JACKSON        FOG       27  25  93 NE7       30.06R VSB 1/4 WCI  19
SLAYTON        CLOUDY    25  25  98 NE5       30.04S FOG     WCI  19
$$
MNZ065>067-074>077-082>085-091>093-171300-
   South Central Minnesota

CITY           SKY/WX    TMP DP  RH WIND       PRES   REMARKS
MANKATO        PTCLDY    20  18  92 NE5       30.08S WCI  13
NEW ULM        CLOUDY    23  19  86 CALM      30.08R
ST JAMES       PTCLDY    21  19  93 CALM      30.09R
FAIRMONT       FOG       25  23  93 N8        30.07R VSB 1   WCI  16
GLENCOE        CLOUDY    24  24 100 CALM      30.08S
FARIBAULT      CLOUDY    21  19  93 E7        30.08R FOG     WCI  13
OWATONNA       FOG       21  21 100 E6        30.06R VSB 1/2 WCI  14
WASECA         FOG       19  18  93 NE7       30.08R VSB 3/4 WCI  10
$$
MNZ078>079-086>088-094>096-171300-
   Southeast Minnesota

CITY           SKY/WX    TMP DP  RH WIND       PRES   REMARKS
ROCHESTER      FOG       25  24  96 E6        30.06R VSB 1/2 WCI  18
6HR MIN TEMP:  21; 6HR MAX TEMP:  25;

RED WING       CLOUDY    25  21  86 E3        30.09R FOG
STANTON        CLOUDY    24  22  92 E3        30.08R FOG
DODGE CENTER   SNOW      23  21  93 NE5       30.06R VSB 1/4 WCI  17
WINONA         CLOUDY    30  28  93 E6        30.11R WCI  24
AUSTIN         FOG       25  23  93 E5        30.06R VSB 1/2 WCI  19
PRESTON        FOG       25  24  96 E3        30.05R VSB 1/4
$$
ABBREVIATIONS USED IN REMARKS
   TC - TEMPERATURES IN CELSIUS
  WCI - WIND CHILL INDEX
   HX - HEAT INDEX
  VSB - VISIBILITY
$$



USA.gov is the U.S. government's official web portal to all federal, state and local government web resources and services.